Time,TemperatureF,DewpointF,PressureIn,WindDirection,WindDirectionDegrees,WindSpeedMPH,WindSpeedGustMPH,Humidity,HourlyPrecipIn,Conditions,Clouds,dailyrainin,SoftwareType,DateUTC
2013-09-24 00:13:00,48.2,43.0,29.97,West,280,0.0,1.0,82,0.00,,,0.00,weatherlink.com 1.10,2013-09-24 04:13:00,
2013-09-24 00:29:00,47.6,43.0,29.98,West,280,0.0,1.0,83,0.00,,,0.00,weatherlink.com 1.10,2013-09-24 04:29:00,
2013-09-24 00:44:00,47.6,43.0,29.98,West,274,0.0,4.0,84,0.00,,,0.00,weatherlink.com 1.10,2013-09-24 04:44:00,
2013-09-24 00:59:00,47.0,42.0,29.98,NNW,340,0.0,1.0,84,0.00,,,0.00,weatherlink.com 1.10,2013-09-24 04:59:00,
2013-09-24 01:14:00,46.2,42.0,29.99,SE,141,0.0,1.0,85,0.00,,,0.00,weatherlink.com 1.10,2013-09-24 05:14:00,
2013-09-24 01:29:00,45.5,42.0,29.99,WSW,243,1.0,1.0,87,0.00,,,0.00,weatherlink.com 1.10,2013-09-24 05:29:00,
2013-09-24 01:44:00,45.6,42.0,29.99,West,278,1.0,2.0,87,0.00,,,0.00,weatherlink.com 1.10,2013-09-24 05:44:00,
2013-09-24 01:59:00,45.3,42.0,29.99,West,278,0.0,1.0,87,0.00,,,0.00,weatherlink.com 1.10,2013-09-24 05:59:00,
2013-09-24 02:14:00,45.2,42.0,29.98,West,269,0.0,1.0,88,0.00,,,0.00,weatherlink.com 1.10,2013-09-24 06:14:00,
2013-09-24 02:29:00,45.2,42.0,29.98,West,266,1.0,1.0,87,0.00,,,0.00,weatherlink.com 1.10,2013-09-24 06:29:00,
2013-09-24 02:44:00,44.8,41.0,29.98,West,266,0.0,1.0,87,0.00,,,0.00,weatherlink.com 1.10,2013-09-24 06:44:00,
2013-09-24 02:59:00,44.7,41.0,29.98,West,269,0.0,0.0,87,0.00,,,0.00,weatherlink.com 1.10,2013-09-24 06:59:00,
2013-09-24 03:14:00,44.8,41.0,29.98,West,269,0.0,0.0,87,0.00,,,0.00,weatherlink.com 1.10,2013-09-24 07:14:00,
2013-09-24 03:29:00,44.6,41.0,29.98,WSW,240,0.0,1.0,87,0.00,,,0.00,weatherlink.com 1.10,2013-09-24 07:29:00,
2013-09-24 03:44:00,44.9,41.0,29.98,West,269,1.0,2.0,86,0.00,,,0.00,weatherlink.com 1.10,2013-09-24 07:44:00,
2013-09-24 03:59:00,44.3,40.0,29.99,West,270,1.0,1.0,86,0.00,,,0.00,weatherlink.com 1.10,2013-09-24 07:59:00,
2013-09-24 04:14:00,-999.0,-99.9,29.98,North,-999,-999.0,-999.0,-999,0.00,,,0.00,weatherlink.com 1.10,2013-09-24 08:14:00,
2013-09-24 04:29:00,-999.0,-99.9,29.99,North,-999,-999.0,-999.0,-999,0.00,,,0.00,weatherlink.com 1.10,2013-09-24 08:29:00,
2013-09-24 04:44:00,-999.0,-99.9,29.99,North,-999,-999.0,-999.0,-999,0.00,,,0.00,weatherlink.com 1.10,2013-09-24 08:44:00,
2013-09-24 04:59:00,-999.0,-99.9,29.99,North,-999,-999.0,-999.0,-999,0.00,,,0.00,weatherlink.com 1.10,2013-09-24 08:59:00,
2013-09-24 05:14:00,-999.0,-99.9,29.99,North,-999,-999.0,-999.0,-999,0.00,,,0.00,weatherlink.com 1.10,2013-09-24 09:14:00,
2013-09-24 05:29:00,-999.0,-99.9,29.99,North,-999,-999.0,-999.0,-999,0.00,,,0.00,weatherlink.com 1.10,2013-09-24 09:29:00,
2013-09-24 05:44:00,-999.0,-99.9,29.99,North,-999,-999.0,-999.0,-999,0.00,,,0.00,weatherlink.com 1.10,2013-09-24 09:44:00,
2013-09-24 05:59:00,-999.0,-99.9,29.99,North,-999,-999.0,-999.0,-999,0.00,,,0.00,weatherlink.com 1.10,2013-09-24 09:59:00,
2013-09-24 06:15:00,-999.0,-99.9,29.99,North,-999,-999.0,-999.0,-999,0.00,,,0.00,weatherlink.com 1.10,2013-09-24 10:15:00,
2013-09-24 06:30:00,-999.0,-99.9,29.99,North,-999,-999.0,-999.0,-999,0.00,,,0.00,weatherlink.com 1.10,2013-09-24 10:30:00,
2013-09-24 06:45:00,-999.0,-99.9,29.99,North,-999,-999.0,-999.0,-999,0.00,,,0.00,weatherlink.com 1.10,2013-09-24 10:45:00,
2013-09-24 07:00:00,-999.0,-99.9,29.99,North,-999,-999.0,-999.0,-999,0.00,,,0.00,weatherlink.com 1.10,2013-09-24 11:00:00,
2013-09-24 07:15:00,-999.0,-99.9,29.99,North,-999,-999.0,-999.0,-999,0.00,,,0.00,weatherlink.com 1.10,2013-09-24 11:15:00,
2013-09-24 07:30:00,-999.0,-99.9,30.00,North,-999,-999.0,-999.0,-999,0.00,,,0.00,weatherlink.com 1.10,2013-09-24 11:30:00,
2013-09-24 07:45:00,45.0,43.0,29.99,WNW,284,0.0,0.0,91,0.00,,,0.00,weatherlink.com 1.10,2013-09-24 11:45:00,
2013-09-24 08:00:00,46.5,43.0,29.99,East,91,0.0,0.0,86,0.00,,,0.00,weatherlink.com 1.10,2013-09-24 12:00:00,
2013-09-24 08:15:00,46.7,43.0,29.99,East,94,0.0,0.0,86,0.00,,,0.00,weatherlink.com 1.10,2013-09-24 12:15:00,
2013-09-24 08:30:00,47.5,44.0,29.98,ENE,57,0.0,1.0,86,0.00,,,0.00,weatherlink.com 1.10,2013-09-24 12:30:00,
2013-09-24 08:45:00,49.1,44.0,29.98,ENE,77,0.0,4.0,83,0.00,,,0.00,weatherlink.com 1.10,2013-09-24 12:45:00,
2013-09-24 09:00:00,50.6,44.0,29.97,NW,311,5.0,9.0,78,0.00,,,0.00,weatherlink.com 1.10,2013-09-24 13:00:00,
2013-09-24 09:15:00,52.3,45.0,29.97,NW,316,8.0,9.0,75,0.00,,,0.00,weatherlink.com 1.10,2013-09-24 13:15:00,
2013-09-24 09:30:00,53.7,45.0,29.96,West,281,4.0,15.0,73,0.00,,,0.00,weatherlink.com 1.10,2013-09-24 13:30:00,
2013-09-24 09:45:00,54.6,46.0,29.96,West,269,7.0,9.0,72,0.00,,,0.00,weatherlink.com 1.10,2013-09-24 13:45:00,
2013-09-24 10:00:00,55.7,46.0,29.96,WNW,301,4.0,8.0,70,0.00,,,0.00,weatherlink.com 1.10,2013-09-24 14:00:00,
2013-09-24 10:15:00,57.4,46.0,29.95,WNW,299,7.0,9.0,67,0.00,,,0.00,weatherlink.com 1.10,2013-09-24 14:15:00,
2013-09-24 10:30:00,57.6,46.0,29.95,WNW,288,0.0,12.0,66,0.00,,,0.00,weatherlink.com 1.10,2013-09-24 14:30:00,
2013-09-24 10:45:00,59.4,48.0,29.94,WNW,297,4.0,7.0,65,0.00,,,0.00,weatherlink.com 1.10,2013-09-24 14:45:00,
2013-09-24 11:00:00,60.2,47.0,29.94,NW,326,3.0,8.0,61,0.00,,,0.00,weatherlink.com 1.10,2013-09-24 15:00:00,
2013-09-24 11:15:00,61.5,49.0,29.93,SW,236,2.0,6.0,63,0.00,,,0.00,weatherlink.com 1.10,2013-09-24 15:15:00,
2013-09-24 11:30:00,62.3,47.0,29.93,SW,228,1.0,7.0,58,0.00,,,0.00,weatherlink.com 1.10,2013-09-24 15:30:00,
2013-09-24 11:45:00,63.2,48.0,29.92,West,278,2.0,9.0,57,0.00,,,0.00,weatherlink.com 1.10,2013-09-24 15:45:00,
2013-09-24 12:00:00,63.8,48.0,29.91,SW,236,3.0,8.0,57,0.00,,,0.00,weatherlink.com 1.10,2013-09-24 16:00:00,
2013-09-24 12:15:00,64.4,47.0,29.91,WNW,298,2.0,7.0,54,0.00,,,0.00,weatherlink.com 1.10,2013-09-24 16:15:00,
2013-09-24 12:30:00,64.9,48.0,29.91,NW,311,5.0,9.0,54,0.00,,,0.00,weatherlink.com 1.10,2013-09-24 16:30:00,
2013-09-24 12:45:00,65.4,47.0,29.89,SW,219,2.0,7.0,52,0.00,,,0.00,weatherlink.com 1.10,2013-09-24 16:45:00,
2013-09-24 13:00:00,66.6,49.0,29.89,NW,308,3.0,8.0,53,0.00,,,0.00,weatherlink.com 1.10,2013-09-24 17:00:00,
2013-09-24 13:15:00,67.3,48.0,29.88,WNW,298,6.0,10.0,50,0.00,,,0.00,weatherlink.com 1.10,2013-09-24 17:15:00,
2013-09-24 13:30:00,67.6,47.0,29.87,West,260,2.0,10.0,48,0.00,,,0.00,weatherlink.com 1.10,2013-09-24 17:30:00,
2013-09-24 13:46:00,68.6,48.0,29.86,WNW,300,2.0,6.0,48,0.00,,,0.00,weatherlink.com 1.10,2013-09-24 17:46:00,
2013-09-24 14:01:00,70.1,50.0,29.86,WNW,297,4.0,7.0,49,0.00,,,0.00,weatherlink.com 1.10,2013-09-24 18:01:00,
2013-09-24 14:16:00,70.1,48.0,29.85,WNW,283,1.0,7.0,46,0.00,,,0.00,weatherlink.com 1.10,2013-09-24 18:16:00,
2013-09-24 14:31:00,70.9,48.0,29.85,WNW,291,4.0,6.0,45,0.00,,,0.00,weatherlink.com 1.10,2013-09-24 18:31:00,
2013-09-24 14:46:00,70.9,48.0,29.84,West,274,3.0,7.0,44,0.00,,,0.00,weatherlink.com 1.10,2013-09-24 18:46:00,
2013-09-24 15:01:00,71.8,49.0,29.84,SSE,160,2.0,9.0,44,0.00,,,0.00,weatherlink.com 1.10,2013-09-24 19:01:00,
2013-09-24 15:16:00,72.4,49.0,29.84,West,271,3.0,7.0,44,0.00,,,0.00,weatherlink.com 1.10,2013-09-24 19:16:00,
2013-09-24 15:31:00,72.0,48.0,29.83,SW,235,4.0,9.0,43,0.00,,,0.00,weatherlink.com 1.10,2013-09-24 19:31:00,
2013-09-24 15:46:00,72.2,48.0,29.82,West,271,2.0,7.0,42,0.00,,,0.00,weatherlink.com 1.10,2013-09-24 19:46:00,
2013-09-24 16:01:00,72.5,49.0,29.82,ESE,120,1.0,6.0,44,0.00,,,0.00,weatherlink.com 1.10,2013-09-24 20:01:00,
2013-09-24 16:16:00,71.9,48.0,29.82,WSW,256,2.0,9.0,43,0.00,,,0.00,weatherlink.com 1.10,2013-09-24 20:16:00,
2013-09-24 16:31:00,72.2,48.0,29.82,WSW,243,3.0,7.0,43,0.00,,,0.00,weatherlink.com 1.10,2013-09-24 20:31:00,
2013-09-24 16:46:00,72.5,50.0,29.81,NW,304,2.0,4.0,45,0.00,,,0.00,weatherlink.com 1.10,2013-09-24 20:46:00,
2013-09-24 17:01:00,72.0,49.0,29.82,NW,323,3.0,8.0,44,0.00,,,0.00,weatherlink.com 1.10,2013-09-24 21:01:00,
2013-09-24 17:16:00,71.9,47.0,29.82,WNW,283,4.0,8.0,41,0.00,,,0.00,weatherlink.com 1.10,2013-09-24 21:16:00,
2013-09-24 17:31:00,71.8,48.0,29.82,West,278,1.0,4.0,43,0.00,,,0.00,weatherlink.com 1.10,2013-09-24 21:31:00,
2013-09-24 17:46:00,70.8,48.0,29.82,WNW,291,1.0,4.0,44,0.00,,,0.00,weatherlink.com 1.10,2013-09-24 21:46:00,
2013-09-24 18:01:00,69.6,48.0,29.82,West,278,1.0,2.0,47,0.00,,,0.00,weatherlink.com 1.10,2013-09-24 22:01:00,
2013-09-24 18:16:00,68.0,48.0,29.82,West,277,0.0,1.0,49,0.00,,,0.00,weatherlink.com 1.10,2013-09-24 22:16:00,
2013-09-24 18:31:00,66.4,52.0,29.82,SSW,211,0.0,1.0,60,0.00,,,0.00,weatherlink.com 1.10,2013-09-24 22:31:00,
2013-09-24 18:46:00,63.3,52.0,29.82,SSW,212,0.0,1.0,66,0.00,,,0.00,weatherlink.com 1.10,2013-09-24 22:46:00,
2013-09-24 19:01:00,60.3,52.0,29.83,NW,314,0.0,1.0,74,0.00,,,0.00,weatherlink.com 1.10,2013-09-24 23:01:00,
2013-09-24 19:17:00,57.8,51.0,29.83,NW,311,0.0,0.0,79,0.00,,,0.00,weatherlink.com 1.10,2013-09-24 23:17:00,
2013-09-24 19:32:00,56.4,51.0,29.83,WNW,283,1.0,2.0,82,0.00,,,0.00,weatherlink.com 1.10,2013-09-24 23:32:00,
2013-09-24 19:47:00,55.3,51.0,29.83,WNW,283,1.0,1.0,84,0.00,,,0.00,weatherlink.com 1.10,2013-09-24 23:47:00,
2013-09-24 20:02:00,54.4,50.0,29.83,West,264,1.0,2.0,85,0.00,,,0.00,weatherlink.com 1.10,2013-09-25 00:02:00,
2013-09-24 20:17:00,53.4,49.0,29.84,NNE,18,0.0,2.0,86,0.00,,,0.00,weatherlink.com 1.10,2013-09-25 00:17:00,
2013-09-24 20:32:00,52.4,49.0,29.84,NW,318,0.0,1.0,89,0.00,,,0.00,weatherlink.com 1.10,2013-09-25 00:32:00,
2013-09-24 20:47:00,51.8,49.0,29.84,NNW,328,0.0,1.0,89,0.00,,,0.00,weatherlink.com 1.10,2013-09-25 00:47:00,
2013-09-24 21:02:00,50.7,48.0,29.84,North,349,1.0,3.0,91,0.00,,,0.00,weatherlink.com 1.10,2013-09-25 01:02:00,
2013-09-24 21:17:00,50.4,48.0,29.85,West,279,1.0,2.0,91,0.00,,,0.00,weatherlink.com 1.10,2013-09-25 01:17:00,
2013-09-24 21:32:00,50.0,48.0,29.84,NW,309,1.0,2.0,92,0.00,,,0.00,weatherlink.com 1.10,2013-09-25 01:32:00,
2013-09-24 21:47:00,49.6,47.0,29.85,North,359,0.0,1.0,92,0.00,,,0.00,weatherlink.com 1.10,2013-09-25 01:47:00,
2013-09-24 22:02:00,49.4,47.0,29.85,North,359,0.0,0.0,92,0.00,,,0.00,weatherlink.com 1.10,2013-09-25 02:02:00,
2013-09-24 22:17:00,49.3,47.0,29.85,NNE,18,0.0,1.0,92,0.00,,,0.00,weatherlink.com 1.10,2013-09-25 02:17:00,
2013-09-24 22:32:00,49.1,47.0,29.85,NNE,18,0.0,0.0,92,0.00,,,0.00,weatherlink.com 1.10,2013-09-25 02:32:00,
2013-09-24 22:47:00,49.4,47.0,29.85,SSW,194,0.0,2.0,92,0.00,,,0.00,weatherlink.com 1.10,2013-09-25 02:47:00,
2013-09-24 23:02:00,50.1,47.0,29.85,NE,47,1.0,1.0,89,0.00,,,0.00,weatherlink.com 1.10,2013-09-25 03:02:00,
2013-09-24 23:17:00,53.7,47.0,29.85,WNW,283,5.0,8.0,79,0.00,,,0.00,weatherlink.com 1.10,2013-09-25 03:17:00,
2013-09-24 23:32:00,55.8,47.0,29.86,East,85,0.0,4.0,73,0.00,,,0.00,weatherlink.com 1.10,2013-09-25 03:32:00,
2013-09-24 23:47:00,55.2,47.0,29.87,SSE,155,1.0,5.0,73,0.00,,,0.00,weatherlink.com 1.10,2013-09-25 03:47:00,